TimeEST,TemperatureF,Dew PointF,Humidity,Sea Level PressureIn,VisibilityMPH,Wind Direction,Wind SpeedMPH,Gust SpeedMPH,PrecipitationIn,Events,Conditions,WindDirDegrees,DateUTC
12:15 AM,42.8,42.8,100,30.12,0.5,Calm,Calm,-,N/A,Fog,Fog,0,2012-12-07 05:15:00
12:35 AM,41.0,41.0,100,30.11,0.2,Calm,Calm,-,N/A,Fog,Fog,0,2012-12-07 05:35:00
12:55 AM,41.0,41.0,100,30.11,0.2,Calm,Calm,-,N/A,Fog,Fog,0,2012-12-07 05:55:00
1:15 AM,39.2,39.2,100,30.11,0.8,Calm,Calm,-,N/A,,Overcast,0,2012-12-07 06:15:00
1:35 AM,39.2,39.2,100,30.11,0.5,Calm,Calm,-,N/A,Fog,Fog,0,2012-12-07 06:35:00
1:55 AM,41.0,41.0,100,30.11,3.0,Calm,Calm,-,N/A,,Overcast,0,2012-12-07 06:55:00
2:15 AM,41.0,41.0,100,30.11,4.0,Calm,Calm,-,N/A,,Overcast,0,2012-12-07 07:15:00
2:35 AM,41.0,41.0,100,30.11,5.0,Calm,Calm,-,N/A,,Overcast,0,2012-12-07 07:35:00
2:55 AM,42.8,42.8,100,30.11,9.0,Calm,Calm,-,N/A,,Overcast,0,2012-12-07 07:55:00
3:15 AM,42.8,42.8,100,30.11,9.0,Calm,Calm,-,N/A,,Overcast,0,2012-12-07 08:15:00
3:35 AM,42.8,42.8,100,30.10,7.0,Calm,Calm,-,N/A,,Overcast,0,2012-12-07 08:35:00
3:55 AM,42.8,42.8,100,30.09,7.0,Calm,Calm,-,N/A,,Overcast,0,2012-12-07 08:55:00
4:15 AM,42.8,42.8,100,30.09,10.0,Calm,Calm,-,N/A,,Overcast,0,2012-12-07 09:15:00
4:35 AM,42.8,42.8,100,30.10,9.0,Calm,Calm,-,N/A,,Mostly Cloudy,0,2012-12-07 09:35:00
4:55 AM,41.0,41.0,100,30.10,3.0,Calm,Calm,-,N/A,,Overcast,0,2012-12-07 09:55:00
5:15 AM,41.0,41.0,100,30.10,4.0,Calm,Calm,-,N/A,,Overcast,0,2012-12-07 10:15:00
5:35 AM,41.0,41.0,100,30.10,8.0,Calm,Calm,-,N/A,,Overcast,0,2012-12-07 10:35:00
5:55 AM,41.0,41.0,100,30.10,6.0,Calm,Calm,-,N/A,,Overcast,0,2012-12-07 10:55:00
6:15 AM,41.0,41.0,100,30.11,9.0,Calm,Calm,-,N/A,,Overcast,0,2012-12-07 11:15:00
6:35 AM,41.0,41.0,100,30.11,10.0,Calm,Calm,-,N/A,,Overcast,0,2012-12-07 11:35:00
6:55 AM,42.8,42.8,100,30.12,9.0,Calm,Calm,-,N/A,,Overcast,0,2012-12-07 11:55:00
7:15 AM,42.8,42.8,100,30.11,8.0,Calm,Calm,-,N/A,,Overcast,0,2012-12-07 12:15:00
7:35 AM,42.8,42.8,100,30.11,8.0,Calm,Calm,-,N/A,,Overcast,0,2012-12-07 12:35:00
7:55 AM,44.6,44.6,100,30.11,9.0,Calm,Calm,-,N/A,,Overcast,0,2012-12-07 12:55:00
8:15 AM,44.6,44.6,100,30.11,9.0,Calm,Calm,-,N/A,,Overcast,0,2012-12-07 13:15:00
8:35 AM,44.6,44.6,100,30.11,10.0,Calm,Calm,-,N/A,,Overcast,0,2012-12-07 13:35:00
8:55 AM,46.4,46.4,100,30.11,7.0,Calm,Calm,-,N/A,,Overcast,0,2012-12-07 13:55:00
9:15 AM,46.4,46.4,100,30.11,10.0,Calm,Calm,-,N/A,,Mostly Cloudy,0,2012-12-07 14:15:00
9:35 AM,48.2,46.4,93,30.11,10.0,Calm,Calm,-,N/A,,Mostly Cloudy,0,2012-12-07 14:35:00
9:55 AM,50.0,46.4,87,30.11,10.0,Calm,Calm,-,N/A,,Mostly Cloudy,0,2012-12-07 14:55:00
10:15 AM,50.0,44.6,82,30.11,10.0,Calm,Calm,-,N/A,,Overcast,0,2012-12-07 15:15:00
10:35 AM,53.6,44.6,72,30.11,10.0,Calm,Calm,-,N/A,,Mostly Cloudy,0,2012-12-07 15:35:00
10:55 AM,53.6,44.6,72,30.10,10.0,Calm,Calm,-,N/A,,Scattered Clouds,0,2012-12-07 15:55:00
11:15 AM,55.4,44.6,67,30.10,10.0,Calm,Calm,-,N/A,,Clear,0,2012-12-07 16:15:00
11:35 AM,55.4,44.6,67,30.09,10.0,Calm,Calm,-,N/A,,Clear,0,2012-12-07 16:35:00
11:55 AM,55.4,46.4,72,30.08,10.0,Calm,Calm,-,N/A,,Mostly Cloudy,0,2012-12-07 16:55:00
12:15 PM,55.4,46.4,72,30.07,5.0,Calm,Calm,-,N/A,,Haze,0,2012-12-07 17:15:00
12:35 PM,55.4,46.4,72,30.06,10.0,Calm,Calm,-,N/A,,Overcast,0,2012-12-07 17:35:00
12:55 PM,55.4,46.4,72,30.05,10.0,Calm,Calm,-,N/A,,Overcast,0,2012-12-07 17:55:00
1:15 PM,55.4,46.4,72,30.04,10.0,Calm,Calm,-,N/A,,Overcast,0,2012-12-07 18:15:00
1:35 PM,57.2,48.2,72,30.03,10.0,Calm,Calm,-,N/A,,Overcast,0,2012-12-07 18:35:00
1:55 PM,57.2,48.2,72,30.02,10.0,Calm,Calm,-,N/A,,Scattered Clouds,0,2012-12-07 18:55:00
2:15 PM,57.2,48.2,72,30.01,10.0,Calm,Calm,-,N/A,,Clear,0,2012-12-07 19:15:00
2:35 PM,57.2,48.2,72,30.00,10.0,Calm,Calm,-,N/A,,Clear,0,2012-12-07 19:35:00
2:55 PM,59.0,48.2,67,30.00,10.0,Calm,Calm,-,N/A,,Partly Cloudy,0,2012-12-07 19:55:00
3:15 PM,59.0,48.2,67,30.00,10.0,Calm,Calm,-,N/A,,Partly Cloudy,0,2012-12-07 20:15:00
3:35 PM,59.0,48.2,67,29.99,10.0,Calm,Calm,-,N/A,,Partly Cloudy,0,2012-12-07 20:35:00
3:55 PM,59.0,48.2,67,29.99,10.0,Calm,Calm,-,N/A,,Partly Cloudy,0,2012-12-07 20:55:00
4:15 PM,59.0,48.2,67,29.99,10.0,Calm,Calm,-,N/A,,Clear,0,2012-12-07 21:15:00
4:35 PM,57.2,48.2,72,29.98,10.0,Calm,Calm,-,N/A,,Clear,0,2012-12-07 21:35:00
4:55 PM,55.4,48.2,77,29.98,10.0,Calm,Calm,-,N/A,,Clear,0,2012-12-07 21:55:00
5:15 PM,53.6,48.2,82,29.98,10.0,Calm,Calm,-,N/A,,Clear,0,2012-12-07 22:15:00
5:35 PM,51.8,48.2,88,29.98,10.0,Calm,Calm,-,N/A,,Clear,0,2012-12-07 22:35:00
5:55 PM,50.0,46.4,87,29.98,10.0,Calm,Calm,-,N/A,,Partly Cloudy,0,2012-12-07 22:55:00
6:15 PM,48.2,46.4,93,29.99,10.0,Calm,Calm,-,N/A,,Scattered Clouds,0,2012-12-07 23:15:00
6:35 PM,48.2,48.2,100,29.99,10.0,Calm,Calm,-,N/A,,Scattered Clouds,0,2012-12-07 23:35:00
6:55 PM,48.2,46.4,93,29.99,10.0,Calm,Calm,-,N/A,,Mostly Cloudy,0,2012-12-07 23:55:00
7:15 PM,48.2,46.4,93,29.99,10.0,Calm,Calm,-,N/A,,Overcast,0,2012-12-08 00:15:00
7:35 PM,48.2,46.4,93,29.99,10.0,Calm,Calm,-,N/A,,Overcast,0,2012-12-08 00:35:00
8:15 PM,48.2,46.4,93,29.99,10.0,Calm,Calm,-,N/A,,Overcast,0,2012-12-08 01:15:00
8:35 PM,48.2,46.4,93,29.99,10.0,Calm,Calm,-,N/A,,Overcast,0,2012-12-08 01:35:00
8:55 PM,48.2,48.2,100,29.99,10.0,Calm,Calm,-,N/A,,Overcast,0,2012-12-08 01:55:00
9:35 PM,48.2,48.2,100,30.00,10.0,Calm,Calm,-,N/A,,Overcast,0,2012-12-08 02:35:00
9:55 PM,48.2,46.4,93,29.99,10.0,Calm,Calm,-,N/A,,Overcast,0,2012-12-08 02:55:00
10:15 PM,48.2,46.4,93,30.00,10.0,Calm,Calm,-,N/A,,Overcast,0,2012-12-08 03:15:00
10:35 PM,48.2,46.4,93,30.00,10.0,Calm,Calm,-,N/A,,Overcast,0,2012-12-08 03:35:00
10:55 PM,48.2,46.4,93,30.00,10.0,Calm,Calm,-,N/A,,Overcast,0,2012-12-08 03:55:00
11:15 PM,48.2,46.4,93,30.00,10.0,Calm,Calm,-,N/A,,Overcast,0,2012-12-08 04:15:00
11:35 PM,48.2,46.4,93,30.01,10.0,Calm,Calm,-,N/A,,Overcast,0,2012-12-08 04:35:00
11:55 PM,48.2,46.4,93,30.01,10.0,Calm,Calm,-,N/A,,Overcast,0,2012-12-08 04:55:00